Location: Carbonear
(47.7333°N, 53.2500°W)
Time: 03:00:49
(UTC+00:00)

CUTE-I - Pass Details

Date: 07 December 2022
Orbit: 809 x 824 km, 98.7° (Epoch: 30 January)

Event Time Altitude Azimuth Distance (km) Brightness Sun altitude
Rises 21:15:39 0° 177° (S) 3,324 ? -15.1°
Reaches altitude 10° 21:18:01 10° 182° (S) 2,399 ? -15.5°
Maximum altitude 21:23:13 55° 259° (W) 983 ? -16.3°
Drops below altitude 10° 21:28:29 10° 337° (NNW) 2,426 ? -17.2°
Sets 21:30:54 0° 342° (NNW) 3,365 ? -17.6°
